Regional Weather Roundup
Issued by NWS

Home | Current Version | Previous Version | Graphics & Text | Print | Product List | Glossary Off
Versions: 1 2 3 4 5 6 7 8 9 10 11 12 13 14 15 16 17 18 19 20 21 22 23 24 25 26 27 28 29 30 31 32 33 34 35 36 37 38 39 40 41 42 43 44 45 46 47 48 49 50

000
ASUS43 KMKX 271521
RWRWI

WISCONSIN REGIONAL WEATHER ROUNDUP
NATIONAL WEATHER SERVICE MILWAUKEE/SULLIVAN WI
1000 AM CDT TUE JUN 27 2017

NOTE: "FAIR" INDICATES FEW OR NO CLOUDS BELOW 12,000 FEET WITH NO
SIGNIFICANT WEATHER AND/OR OBSTRUCTIONS TO VISIBILITY.

WIZ001-002-006>008-014>016-023>028-271600-
NORTHWEST WISCONSIN

CITY           SKY/WX    TMP DP  RH WIND       PRES   REMARKS
SUPERIOR ARPT  NOT AVBL
ASHLAND        SUNNY     67  53  61 SW9       30.04F
HAYWARD        MOSUNNY   65  48  54 VRB3      30.07F
SIREN          SUNNY     66  44  45 W8        30.07F
CUMBERLAND     MOSUNNY   64  46  52 SW7       30.08F
RICE LAKE      MOSUNNY   65  46  49 W7        30.10F
CHETEK         MOSUNNY   66  51  58 SW3       30.09F
LADYSMITH      SUNNY     67  48  49 W8        30.09F
EAU CLAIRE     SUNNY     67  51  56 W7        30.08F
MENOMONIE      SUNNY     69  49  48 SW8       30.08F
NEW RICHMOND   SUNNY     67  49  51 SW8       30.08F
OSCEOLA        SUNNY     68  47  47 SW6       30.10F
$$

WIZ003>005-009-010-017-018-271600-
NORTH CENTRAL WISCONSIN

CITY           SKY/WX    TMP DP  RH WIND       PRES   REMARKS
MANITOWISH WTR SUNNY     65  47  51 NW8G16    30.05S
ARBOR VITAE    SUNNY     64  50  61 W9        30.05S
WOODRUFF       SUNNY     64  50  61 W9        30.05S
RHINELANDER    SUNNY     64  52  64 W8        30.07S
EAGLE RIVER    SUNNY     64  46  51 W13       30.04F
LAND O LAKES   SUNNY     65  45  48 W8        30.05F
PHILLIPS       SUNNY     65  49  55 W5        30.06F
TOMAHAWK       NOT AVBL
MEDFORD        SUNNY     63  48  57 W9        30.08F
MERRILL        SUNNY     67  48  51 NW7       30.07S
$$

WIZ029-030-035-036-043>047-271600-
CENTRAL WISCONSIN

CITY           SKY/WX    TMP DP  RH WIND       PRES   REMARKS
WAUSAU         SUNNY     67  48  50 NW12      30.06F
MOSINEE        MOSUNNY   66  48  52 W8        30.09F
MARSHFIELD     SUNNY     65  49  56 W10       30.09S
STEVENS POINT  SUNNY     65  46  50 W10       30.09F
WAUPACA        SUNNY     69  49  49 W9        30.08F
WAUTOMA        SUNNY     68  49  50 W13       30.10F
WISC RAPIDS    SUNNY     68  49  50 NW13      30.10F
CAMP DOUGLAS   MOSUNNY   68  52  56 W9        30.10F
$$

WIZ011>013-019>022-031-037>040-048>050-271600-
NORTHEAST WISCONSIN

CITY           SKY/WX    TMP DP  RH WIND       PRES   REMARKS
ANTIGO         SUNNY     63  51  66 W9        30.07F
SHAWANO        SUNNY     68  52  56 W6        30.06F
OCONTO         PTSUNNY   64  52  65 SW7       30.04F
STURGEON BAY     N/A     62  51  67 W6        30.05
GREEN BAY      MOSUNNY   65  54  67 W7        30.06F
MANITOWOC      SUNNY     65  50  58 W9        30.08S
APPLETON       MOSUNNY   64  46  52 W8        30.07S
CLINTONVILLE   SUNNY     68  48  49 W8        30.06F
OSHKOSH        SUNNY     66  50  56 W9        30.08F
$$

WIZ032>034-041-042-053>061-271600-
SOUTHWEST WISCONSIN

CITY           SKY/WX    TMP DP  RH WIND       PRES   REMARKS
LA CROSSE      SUNNY     71  51  49 VRB5      30.11F
SPARTA         SUNNY     65  51  60 W3        30.12F
VIROQUA        SUNNY     66  49  54 W7        30.13F
BOSCOBEL       SUNNY     68  51  54 SW7       30.13F
PRAIRIE DU CHI SUNNY     68  47  46 SW3       30.13F
PLATTEVILLE    SUNNY     67  49  52 W5        30.14F
$$

WIZ056-057-062-063-064-067-068-271600-
SOUTH CENTRAL WISCONSIN

CITY           SKY/WX    TMP DP  RH WIND       PRES   REMARKS
REEDSBURG      SUNNY     67  48  50 W13       30.11F
BARABOO/DELLS  SUNNY     67  46  46 W8        30.12S
LONE ROCK      SUNNY     67  48  50 W7        30.13F
MINERAL POINT  SUNNY     68  46  45 W8        30.14F
MADISON        MOSUNNY   66  47  50 VRB7      30.12F
MIDDLETON      SUNNY     68  49  50 W8        30.13S
WATERTOWN      NOT AVBL
MONROE         SUNNY     66  43  42 W8        30.14S
JANESVILLE     SUNNY     68  46  45 W6        30.13S
$$

WIZ051-052-058>065-066-070>072-271600-
SOUTHEAST WISCONSIN

CITY           SKY/WX    TMP DP  RH WIND       PRES   REMARKS
MILWAUKEE      MOSUNNY   68  47  46 W10       30.11F
WAUKESHA       SUNNY     64  48  55 NW9       30.13R
MILWAUKEE/TIMM SUNNY     66  46  48 W9        30.11F
RACINE         SUNNY     67  48  50 NW6       30.12F
KENOSHA        SUNNY     67  48  50 NW10      30.12F
FOND DU LAC    SUNNY     68  46  45 W13       30.09F
SHEBOYGAN      SUNNY     66  53  63 W8        30.08F
WEST BEND      SUNNY     64  48  55 W9        30.10F
JUNEAU         SUNNY     65  47  53 W6        30.12S
$$

LSZ147-162-271600-
LAKE SUPERIOR

STATION/POSITION TIME  TEMP    WIND        PRES    WAVE
                       AIR SEA DIR/SP/G            HT/PER
                 (UTC) (F)     (DEG/KT/KT) (MB)    (FT/S)
W MID LAKE BUOY  1450   43 39  230/  8/  8 1016.7S   0
DEVILS ISLAND    1500   57     230/  9/ 11 1016.4F
SAXON HARBOR     1430   66     210/  2/  6 1016.6F
$$

LMZ867-665-643>646-271600-
LAKE MICHIGAN

STATION/POSITION TIME  TEMP    WIND        PRES    WAVE
                       AIR SEA DIR/SP/G            HT/PER
                 (UTC) (F)     (DEG/KT/KT) (MB)    (FT/S)
CHAMBERS ISLAND  1440   62     210/  3/  6 1016.9S
S GREEN BAY BUOY 1500   60     270/  6/  8 1017.4
N MID LAKE BUOY  1450   56 56  270/ 10/ 12 1017.5S   1/ 3
NORTHPORT PIER   1430   60     310/  5/  8 1016.9F
KEWAUNEE LAKESHO 1454   64     290/  5/  8 1017.5F
SHEBOYGAN LAKESH 1500   63     280/  9/ 11 1018.5F
PORT WASHINGTON  1440   67     320/  9/ 15 1020.0S
ATWATER BUOY     1409   61 56  280/  4/  6 1019.7R
MILWAUKEE LAKESH 1500   66     300/ 11/ 14   N/A
S MID LAKE BUOY  1450   60 61  300/ 10/ 12 1019.8R   2/ 3
KENOSHA   LAKESH 1500   66     280/ 10/ 13 1019.6
$$

TC  - TEMPERATURE IN CELSIUS
VSB - VISIBILITY IN STATUTE MILES
WCI - WIND CHILL INDEX
HX  - HEAT INDEX





USA.gov is the U.S. government's official web portal to all federal, state and local government web resources and services.